Location: *
(32.8667°N, 13.1833°E)
Time: 10:32:34
(UTC+00:00)

DELTA 2 R/B (1) - Pass Details

Date: 18 July 2019
Orbit: 790 x 803 km, 39.6° (Epoch: 19 August)

Event Time Altitude Azimuth Distance (km) Brightness Sun altitude
Rises 20:43:01 0° 266° (W) 3,294 7.2 -25.3°
Reaches altitude 10° 20:45:34 10° 271° (W) 2,363 6.5 -25.6°
Maximum altitude 20:50:59 50° 347° (NNW) 999 4.3 -26.3°
Enters shadow 20:55:08 17° 58° (ENE) 1,918 5.5 -26.8°
